TimeCDT,TemperatureF,Dew PointF,Humidity,Sea Level PressureIn,VisibilityMPH,Wind Direction,Wind SpeedMPH,Gust SpeedMPH,PrecipitationIn,Events,Conditions,WindDirDegrees,DateUTC
12:58 AM,55.2,47.7,76,29.87,10.0,SE,16.1,-,N/A,,Scattered Clouds,140,2013-04-06 05:58:00
1:59 AM,53.8,47.8,80,29.86,10.0,SE,10.4,-,N/A,,Clear,130,2013-04-06 06:59:00
2:58 AM,52.7,48.0,84,29.85,10.0,SE,8.1,-,N/A,,Partly Cloudy,130,2013-04-06 07:58:00
3:58 AM,51.8,47.5,85,29.83,10.0,SE,8.1,-,N/A,,Clear,130,2013-04-06 08:58:00
4:58 AM,51.3,47.5,87,29.80,10.0,SE,11.5,-,N/A,,Clear,140,2013-04-06 09:58:00
5:58 AM,50.0,47.5,91,29.80,10.0,SE,10.4,-,N/A,,Partly Cloudy,140,2013-04-06 10:58:00
6:58 AM,48.2,47.5,97,29.81,10.0,SE,11.5,-,N/A,,Partly Cloudy,140,2013-04-06 11:58:00
7:58 AM,49.1,47.8,95,29.84,10.0,SSE,4.6,-,N/A,,Clear,150,2013-04-06 12:58:00
8:58 AM,54.3,49.3,83,29.83,10.0,SSE,12.7,-,N/A,,Clear,150,2013-04-06 13:58:00
9:58 AM,60.8,49.1,65,29.84,10.0,South,15.0,-,N/A,,Clear,170,2013-04-06 14:58:00
10:58 AM,65.7,47.5,52,29.83,10.0,SSW,10.4,-,N/A,,Clear,200,2013-04-06 15:58:00
11:58 AM,68.4,47.8,48,29.83,10.0,Variable,6.9,-,N/A,,Clear,0,2013-04-06 16:58:00
12:58 PM,71.2,47.8,43,29.84,10.0,WNW,2.3,-,N/A,,Clear,290,2013-04-06 17:58:00
1:59 PM,72.9,46.6,39,29.83,10.0,Variable,5.8,-,N/A,,Partly Cloudy,0,2013-04-06 18:59:00
2:58 PM,73.9,47.5,39,29.81,10.0,Variable,4.6,-,N/A,,Partly Cloudy,0,2013-04-06 19:58:00
3:11 PM,73.4,48.2,41,29.82,10.0,NE,5.8,-,N/A,Rain,Light Rain,40,2013-04-06 20:11:00
3:19 PM,73.4,48.2,41,29.82,10.0,Variable,3.5,-,N/A,,Partly Cloudy,0,2013-04-06 20:19:00
3:58 PM,73.6,48.4,41,29.80,10.0,NNE,3.5,-,0.00,,Clear,30,2013-04-06 20:58:00
4:58 PM,75.6,48.9,39,29.79,10.0,East,6.9,-,N/A,,Clear,80,2013-04-06 21:58:00
5:58 PM,74.8,48.9,40,29.79,10.0,ESE,6.9,-,N/A,,Clear,110,2013-04-06 22:58:00
6:58 PM,73.9,50.7,44,29.80,10.0,East,4.6,-,N/A,,Clear,80,2013-04-06 23:58:00
7:59 PM,66.4,54.7,66,29.81,10.0,NE,6.9,-,N/A,,Clear,50,2013-04-07 00:59:00
8:58 PM,61.0,54.0,78,29.81,10.0,NNE,8.1,-,N/A,,Clear,20,2013-04-07 01:58:00
9:58 PM,57.4,52.2,83,29.83,10.0,NNE,8.1,-,N/A,,Scattered Clouds,30,2013-04-07 02:58:00
10:58 PM,57.6,52.0,82,29.84,10.0,NNE,8.1,-,N/A,,Mostly Cloudy,20,2013-04-07 03:58:00
11:58 PM,55.0,50.9,86,29.82,10.0,NNE,8.1,-,N/A,,Clear,30,2013-04-07 04:58:00